User: anonymous   Login
Location: Unspecified
(0.0000°N, 0.0000°E)
Time: 03:33:16
(UTC+00:00)
Language:

Transit 4B - Orbit

View from above orbital plane
View from above orbital plane
View from above satellite
View from above satellite

Ground track
Ground track

The orbit data is extracted from the following two-line orbital elements,

1   202U 61031A   17173.57806191 +.00000013 +00000-0 -11179-4 0  9999
2   202 032.4367 234.0911 0101107 134.8510 226.0377 13.63503583772902
Epoch (UTC): 22 June 2017 13:52:24
Eccentricity: 0.0101107
inclination: 32.4367°
perigee height: 948 km
apogee height: 1098 km
right ascension of ascending node: 234.0911°
argument of perigee: 134.8510°
revolutions per day: 13.63503583
mean anomaly at epoch: 226.0377°
orbit number at epoch: 77290

The dashed part of the orbit path shows where the satellite is in the earth's shadow,  

DLR